Torna al catalogo

THORAD AGENA D DEB

AttivoSSO
NORAD 4643·DEBRIS·🇺🇸 United States

Lanciato Apr 8, 1970 da Vandenberg Space Force Base

Loading…

Prossimi Passaggi (prossime 24 ore)

TLE

AggiornatoSource: Space-Track

Epoca: Sep 14, 2026, 10:04 UTC

1 04643U 70025AB  26257.41994394  .00000085  00000-0  18279-3 0  9999
2 04643  99.3805 101.4120 0011069 358.8685 120.5156 13.55268793783896

Traccia THORAD AGENA D DEB in tempo reale con AllMySat

Download on the App Store